DW6536 Weather Reports


time (UTC)temp
F
wind
direction
speed
knots
gust
knots
rain 1hr
in
rain 24hr
in
rain mn
in
humidity
%
barometer
mb
20260503234534 75 207 0.9 0.0 0.00 0.00 0.00 43 1015.5
20260503233038 76 159 1.7 0.0 0.00 0.00 0.00 42 1015.7
20260503231533 76 131 0.9 0.0 0.00 0.00 0.00 44 1015.7
20260503230033 76 140 1.7 0.0 0.00 0.00 0.00 42 1015.5
20260503224529 77 124 2.6 0.0 0.00 0.00 0.00 41 1015.6
20260503223027 78 165 2.6 0.0 0.00 0.00 0.00 38 1016.0
20260503221526 79 117 1.7 0.0 0.00 0.00 0.00 39 1016.1
20260503220031 79 210 2.6 0.0 0.00 0.00 0.00 38 1016.3
20260503214524 78 226 1.7 0.0 0.00 0.00 0.00 39 1016.4
20260503213021 79 116 2.6 0.0 0.00 0.00 0.00 38 1016.8
20260503211521 78 104 3.5 0.0 0.00 0.00 0.00 37 1017.0
20260503210017 79 226 2.6 0.0 0.00 0.00 0.00 38 1017.4
20260503204516 79 172 3.5 0.0 0.00 0.00 0.00 38 1017.6
20260503203035 79 118 1.7 0.0 0.00 0.00 0.00 37 1017.8
20260503201513 80 120 2.6 0.0 0.00 0.00 0.00 37 1018.2
20260503200012 80 143 1.7 0.0 0.00 0.00 0.00 36 1018.4
20260503194514 79 207 2.6 0.0 0.00 0.00 0.00 40 1018.6
20260503193006 79 162 3.5 0.0 0.00 0.00 0.00 36 1018.9
20260503191505 79 142 2.6 0.0 0.00 0.00 0.00 40 1018.9
20260503190004 79 218 2.6 0.0 0.00 0.00 0.00 40 1019.2
20260503184605 79 168 2.6 0.0 0.00 0.00 0.00 40 1019.5
20260503183102 80 270 1.7 0.0 0.00 0.00 0.00 42 1019.6
20260503181601 79 221 2.6 0.0 0.00 0.00 0.00 40 1019.9
20260503180056 78 118 1.7 0.0 0.00 0.00 0.00 41 1020.3
20260503174552 77 253 2.6 0.0 0.00 0.00 0.00 43 1020.6
20260503173052 77 101 2.6 0.0 0.00 0.00 0.00 45 1020.7
20260503171550 77 153 1.7 0.0 0.00 0.00 0.00 41 1020.9
20260503081545 52 132 0.0 0.0 0.00 0.00 0.00 87 1019.8
20260503071532 52 132 0.0 0.0 0.00 0.00 0.00 86 1020.1
20260503054533 54 132 0.0 0.0 0.00 0.00 0.00 84 1020.4
20260503053035 54 132 0.0 0.0 0.00 0.00 0.00 83 1020.5
20260503051521 54 132 0.0 0.0 0.00 0.00 0.00 83 1020.5
20260503050017 55 132 0.0 0.0 0.00 0.00 0.00 81 1020.4
20260503044517 55 132 0.0 0.0 0.00 0.00 0.00 81 1020.3
20260503043025 56 132 0.0 0.0 0.00 0.00 0.00 80 1020.4
20260503041516 56 132 0.0 0.0 0.00 0.00 0.00 79 1020.2
20260503040026 57 132 0.0 0.0 0.00 0.00 0.00 78 1020.1
20260503034515 57 132 0.0 0.0 0.00 0.00 0.00 76 1020.2
20260503033016 58 132 0.0 0.0 0.00 0.00 0.00 74 1020.0
20260503031514 58 132 0.0 0.0 0.00 0.00 0.00 74 1019.9
20260503030013 58 132 0.0 0.0 0.00 0.00 0.00 74 1019.8
20260503024513 59 132 0.0 0.0 0.00 0.00 0.00 72 1019.7
20260503023012 60 132 0.0 0.0 0.00 0.00 0.00 70 1019.2
20260503021511 61 132 0.0 0.0 0.00 0.00 0.00 68 1019.1
20260503020011 62 132 0.0 0.0 0.00 0.00 0.00 67 1019.0
20260503014510 63 132 0.0 0.0 0.00 0.00 0.00 65 1018.9
20260503013010 65 132 0.0 0.0 0.00 0.00 0.00 62 1019.0
20260503011515 67 132 0.0 0.0 0.00 0.00 0.00 60 1018.7
20260503010009 69 132 0.0 0.0 0.00 0.00 0.00 59 1018.7
20260503004509 70 132 0.0 0.0 0.00 0.00 0.00 53 1018.6
20260503003008 71 91 0.0 0.0 0.00 0.00 0.00 50 1018.6
20260503001508 72 149 0.0 0.0 0.00 0.00 0.00 51 1018.6
20260503000007 73 149 0.0 0.0 0.00 0.00 0.00 48 1018.5